McAllen, TX

11:41 PM CDT on September 25, 2016 (GMT -0500)
McAllen Miller International

Weather History for KMFE - December, 2011

Change the Weather History Date:

Sunday, December 11, 2011

  Actual Average Record
Temperature  
Mean Temperature 54 °F 62 °F  
Max Temperature 58 °F 73 °F 90 °F (1949)
Min Temperature 50 °F 52 °F 28 °F (1915)
Degree Days  
Heating Degree Days 11 5  
Month to date heating degree days 64 50  
Since 1 July heating degree days 96 110  
Cooling Degree Days 0 3  
Month to date cooling degree days 33 35  
Year to date cooling degree days 5207 4404  
Growing Degree Days 2 (Base 50)    
Moisture  
Dew Point 51 °F    
Average Humidity 95    
Maximum Humidity 100    
Minimum Humidity 89    
Precipitation  
Precipitation 0.26 in 0.04 in 1.16 in (1986)
Month to date precipitation 1.92 0.38  
Year to date precipitation 10.05 21.39  
Sea Level Pressure  
Sea Level Pressure 30.25 in    
Wind  
Wind Speed 8 mph (NNW)    
Max Wind Speed 14 mph    
Max Gust Speed 17 mph    
Visibility 6 miles    
Events Rain    
T = Trace of Precipitation, MM = Missing Value Source: NWS Daily Summary

Daily Weather History Graph

Daily Weather History Graph

Search for Another Location

Airport or City:

Trip Planner

Search our weather history database for the weather conditions in past years. The results will help you decide how hot, cold, wet, or windy it might be!

Date:

Astronomy

Dec. 11, 2011 Rise Set
Actual Time 7:10 AM CST 5:42 PM CST
Civil Twilight 6:44 AM CST 6:07 PM CST
Nautical Twilight 6:16 AM CST 6:36 PM CST
Astronomical Twilight 5:47 AM CST 7:04 PM CST
Moon 6:52 PM CST (12/11) 7:59 AM CST (12/11)
Length of Visible Light 11h 22m
Length of Day
10h 32m
Full, 99% of the Moon is Illuminated
Dec 11
Full
Dec 17
Last Quarter
Dec 24
New
Jan 1
First Quarter
Jan 9
Full

Hourly Weather History & Observations

Time (CST) Temp. Dew Point Humidity Pressure Visibility Wind Dir Wind Speed Gust Speed Precip Events Conditions
12:28 AM 55.4 °F 53.6 °F 94% 30.31 in 4.0 mi North 10.4 mph - 0.04 in Rain Rain
12:53 AM 54.0 °F 53.1 °F 97% 30.30 in 4.0 mi North 13.8 mph - 0.07 in Rain Light Rain
1:26 AM 53.6 °F 53.6 °F 100% 30.31 in 5.0 mi North 8.1 mph - 0.03 in Rain Light Rain
1:33 AM 53.6 °F 53.6 °F 100% 30.31 in 6.0 mi North 8.1 mph - 0.03 in Rain Light Rain
1:46 AM 53.6 °F 53.6 °F 100% 30.31 in 5.0 mi North 8.1 mph - 0.04 in Rain Light Rain
1:53 AM 54.0 °F 53.1 °F 97% 30.31 in 5.0 mi North 9.2 mph - 0.05 in Rain Light Rain
2:53 AM 53.1 °F 52.0 °F 96% 30.30 in 6.0 mi North 6.9 mph - 0.05 in Rain Light Rain
3:53 AM 52.0 °F 51.1 °F 97% 30.29 in 6.0 mi North 10.4 mph - 0.02 in Rain Light Rain
4:53 AM 51.1 °F 50.0 °F 96% 30.28 in 6.0 mi North 10.4 mph - 0.01 in Rain Light Rain
5:53 AM 51.1 °F 50.0 °F 96% 30.28 in 9.0 mi North 10.4 mph - 0.00 in   Overcast
6:09 AM 51.8 °F 50.0 °F 94% 30.28 in 9.0 mi NNW 10.4 mph - N/A   Overcast
6:53 AM 50.0 °F 48.9 °F 96% 30.29 in 9.0 mi NNW 10.4 mph - N/A   Overcast
7:53 AM 50.0 °F 48.9 °F 96% 30.31 in 7.0 mi NNW 10.4 mph - N/A   Overcast
8:53 AM 50.0 °F 48.2 °F 94% 30.32 in 7.0 mi NW 8.1 mph - N/A   Overcast
9:53 AM 51.1 °F 48.9 °F 92% 30.32 in 9.0 mi NNW 9.2 mph - N/A   Overcast
10:53 AM 52.0 °F 48.9 °F 89% 30.32 in 8.0 mi NNW 10.4 mph - N/A   Overcast
11:53 AM 52.0 °F 50.0 °F 93% 30.29 in 6.0 mi NNW 8.1 mph - 0.00 in   Overcast
12:53 PM 52.0 °F 51.1 °F 97% 30.26 in 2.0 mi NNW 8.1 mph - N/A   Overcast
1:00 PM 51.8 °F 51.8 °F 100% 30.25 in 5.0 mi NNW 8.1 mph - 0.00 in Rain Light Rain
1:53 PM 53.1 °F 51.1 °F 93% 30.22 in 6.0 mi NNW 6.9 mph - 0.00 in   Overcast
2:51 PM 53.6 °F 51.8 °F 94% 30.20 in 2.0 mi NW 8.1 mph - N/A   Overcast
2:53 PM 53.1 °F 52.0 °F 96% 30.19 in 2.0 mi NW 8.1 mph - N/A   Overcast
3:53 PM 53.1 °F 52.0 °F 96% 30.19 in 2.0 mi NNW 8.1 mph - 0.00 in Rain Light Rain
4:00 PM 53.6 °F 51.8 °F 94% 30.19 in 4.0 mi NNW 6.9 mph - 0.00 in Rain Light Rain
4:53 PM 53.1 °F 52.0 °F 96% 30.18 in 5.0 mi NNW 6.9 mph - 0.01 in Rain Light Rain
5:53 PM 53.1 °F 52.0 °F 96% 30.17 in 6.0 mi NW 8.1 mph - 0.00 in Rain Light Rain
6:03 PM 53.6 °F 51.8 °F 94% 30.18 in 5.0 mi NW 5.8 mph - 0.01 in Rain Light Rain
6:53 PM 53.1 °F 53.1 °F 100% 30.18 in 6.0 mi WNW 3.5 mph - 0.01 in   Overcast
7:53 PM 53.1 °F 53.1 °F 100% 30.19 in 6.0 mi WNW 5.8 mph - 0.01 in Rain Light Rain
8:53 PM 53.1 °F 52.0 °F 96% 30.20 in 7.0 mi West 5.8 mph - 0.01 in Rain Light Rain
9:53 PM 52.0 °F 51.1 °F 97% 30.20 in 9.0 mi West 6.9 mph - 0.01 in Rain Light Rain
10:53 PM 51.8 °F 50.0 °F 94% 30.20 in 10.0 mi West 5.8 mph - N/A   Overcast
11:53 PM 51.1 °F 50.0 °F 96% 30.18 in 10.0 mi West 5.8 mph - 0.01 in   Overcast